Torna al catalogo

COSMOS 2251 DEB

AttivoLEO
NORAD 35888·DEBRIS·🇷🇺 Russia

Lanciato Jun 16, 1993 da Plesetsk Cosmodrome

Loading…

Prossimi Passaggi (prossime 24 ore)

TLE

AggiornatoSource: Space-Track

Epoca: Sep 14, 2026, 04:13 UTC

1 35888U 93036AUB 26257.17605453  .00000939  00000-0  20209-3 0  9993
2 35888  74.0326 191.9332 0050887 253.6863 105.8702 14.59196737902900

Traccia COSMOS 2251 DEB in tempo reale con AllMySat

Download on the App Store